TURKSAT 4A

Last updated on Tue Sep 16 2025 00:02:48 GMT+0000 (Coordinated Universal Time)

1 39522U 14007A 25258.59289598 .00000129 00000+0 00000+0 0 9990 2 39522 0.0710 288.8848 0003408 316.6250 4.7271 1.00269826 42219
UTC large
Height (km)
Speed (km/s)
/
Latitude / Longitude
Inclination (degrees)
Orbital Period (minutes)
Azimuth
Elevation
Range (km)
Doppler Factor

Next 0 passes for location: London (51.5072 / 0.1276)

Sorry there are no passes over London.